Погода в Гластонбери

Великобритания     51°09′10″N   2°43′11″W
темп.,
°C
ветер,
м/с
пор.,
м/с
влажн.,
%
обл.,
%
осадки,
мм/ч
давл.,
гПа
погр.,
м
10 мая, пн
пн1001:00+9ю61190100 0.0 995670
04:00+10ююз71178100 0.1 994920
07:00+10ююз7128684 0.1 995946
10:00+12ююз9137653 0.3 9961312
13:00+14ююз10136758 1.0 9981850
16:00+13ююз914725 0.8 10001656
19:00+11ююз711803 1.2 10011036
22:00+7ю410950 0.1 1004227
11 мая, вт
вт1101:00+5ююв3597100 0.1 1005112
04:00+5юв369734 0.0 1005118
07:00+7юв3994100 0.0 1005392
10:00+11ююв797295 0.1 10051292
13:00+13ююв9135715 0.3 10041947
16:00+11ю1014892 1.7 10031304
19:00+10юз8128842 3.2 1004911
22:00+6юз4109549 0.3 1007359
12 мая, ср
ср1201:00+7юз5119558 0.3 1008505
04:00+4ю37973 0.0 1009139
07:00+6ю28960 0.0 1009270
10:00+11ююз457070 0.0 10091130
13:00+12ю567273 1.1 10091267
16:00+10ю5780100 0.8 1010672
19:00+8в1396100 5.3 1010216
22:00+7с4798100 10.1 1009323
13 мая, чт
чт1301:00+7ссв5998100 13.6 1008476
04:00+7св3796100 0.5 1007328
07:00+8св3795100 0.6 1006371
10:00+10всв5789100 0.1 1006961
13:00+11всв61089100 0.9 1004831
16:00+12юв788782 0.7 1004783
19:00+10юв588964 0.9 1005605
22:00+7в34955 0.1 100767
14 мая, пт
пт1401:00+5св229577 0.1 100728
04:00+8всв4893100 0.0 1007451
07:00+7св41096100 0.6 1009404
10:00+8св61093100 0.1 1011525
13:00+11св688292 0.3 1011872
16:00+12св4683100 0.9 1012902
19:00+12св358321 1.4 1012413
22:00+8св119010 0.2 101410